Flag for Puerto Rico Weather past 2 weeks in San Juan, Puerto Rico

Now
88 °F

Scattered clouds.


Feels Like: 102 °F
Forecast: 82 / 89 °F
Wind: 17 mph from Northeast

Location: Luis Munoz Marin

Current Time: Jul 25, 2014 at 2:44:35 PM

Latest Report: Jul 25, 2014 at 1:56 PM


Visibility: 10 mi

Pressure: 30.04 "Hg

Humidity: 73%

Dew point: 78 °F

Location of San JuanLocation

Historic Weather in San Juan — Graph

°F

San Juan temperature yesterday

Maximum temperature yesterday: 88 °F (at 10:56 AM)
Minimum temperature yesterday: 81 °F (at 11:56 PM)
Average temperature yesterday: 85 °F

Past Weeks' High & Low Weather Summary

 TemperatureHumidityPressure
High92 °F (Jul 15, 1:56 PM)92% (Jul 22, 2:56 AM)30.12 "Hg (Jul 22, 2:56 AM)
Low78 °F (Jul 11, 3:56 AM)50% (Jul 16, 1:56 PM)30.00 "Hg (Jul 15, 3:56 PM)
Average84 °F74%30.06 "Hg
* Reported Jul 10 1:56 PM — Jul 25 1:56 PM, San Juan, Weather by CustomWeather, © 2014

Note: Actual official high and low records may vary slightly from our data, if they occured in-between our weather recording intervals... More about our weather records

Advertising

San Juan weather history for previous 24 hours

 ConditionsComfort  
Time TempWeatherWind HumidityBarometerVisibility
1:56 PM
Jul 25
88 °FScattered clouds.17 mph73%30.04 "Hg10 mi
12:56 PM85 °FScattered clouds.8 mph86%30.06 "Hg10 mi
11:56 AM88 °FBroken clouds.20 mph67%30.07 "Hg10 mi
10:56 AM87 °FScattered clouds.18 mph67%30.08 "Hg10 mi
9:56 AM87 °FScattered clouds.17 mph65%30.08 "Hg10 mi
8:56 AM85 °FScattered clouds.16 mph72%30.07 "Hg10 mi
7:56 AM84 °FScattered clouds.7 mph74%30.08 "Hg10 mi
6:56 AM82 °FPassing clouds.8 mph79%30.07 "Hg10 mi
5:56 AM81 °FPartly cloudy.15 mph82%30.05 "Hg10 mi
4:56 AM81 °FPassing clouds.7 mph79%30.03 "Hg10 mi
3:56 AM81 °FPassing clouds.7 mph79%30.02 "Hg10 mi
2:56 AM82 °FPassing clouds.9 mph77%30.02 "Hg10 mi
1:56 AM81 °FPassing clouds.10 mph82%30.04 "Hg10 mi
12:56 AM81 °FPartly cloudy.12 mph82%30.06 "Hg10 mi
11:56 PM
Jul 24
81 °FPartly cloudy.8 mph85%30.07 "Hg10 mi
10:56 PM82 °FPartly cloudy.12 mph85%30.08 "Hg10 mi
9:56 PM83 °FPassing clouds.8 mph79%30.09 "Hg10 mi
8:56 PM83 °FPassing clouds.8 mph77%30.07 "Hg10 mi
7:56 PM83 °FPassing clouds.15 mph77%30.05 "Hg10 mi
6:56 PM84 °FScattered clouds.16 mph74%30.03 "Hg9 mi
5:56 PM85 °FScattered clouds.20 mph72%30.01 "Hg9 mi
4:56 PM86 °FScattered clouds.21 mph70%30.01 "Hg9 mi
3:56 PM87 °FScattered clouds.18 mph69%30.01 "Hg10 mi
2:56 PM88 °FScattered clouds.22 mph65%30.01 "Hg10 mi
Weather by CustomWeather, © 2014

See weather overviewHow to use our weather pages